QPF
0.00 0.00 0.00 0.00 0.00 0.00 0.00 0.00 0.00 0.01 0.01 0.02 0.05 0.07 0.05 0.05 0.07 0.12 0.19 0.26 0.32 0.33 0.35 0.36 0.35 0.30 0.29 0.21 0.13 0.08 0.07 0.12 0.18 0.15 0.08 0.02 0.01 0.00 0.00 0.00 0.00 0.00 0.00
0.00 0.00 0.00 0.00 0.00 0.00 0.00 0.00 0.00 0.00 0.01 0.01 0.05 0.09 0.08 0.07 0.07 0.10 0.16 0.24 0.30 0.33 0.34 0.33 0.32 0.28 0.28 0.24 0.19 0.14 0.10 0.08 0.14 0.16 0.09 0.04 0.01 0.00 0.00 0.00 0.00 0.00 0.00
0.00 0.00 0.00 0.00 0.00 0.00 0.00 0.00 0.00 0.01 0.01 0.02 0.04 0.07 0.10 0.09 0.08 0.07 0.10 0.15 0.19 0.23 0.27 0.27 0.26 0.23 0.21 0.20 0.16 0.12 0.09 0.07 0.11 0.17 0.12 0.04 0.02 0.00 0.00 0.00 0.00 0.00 0.00
0.00 0.00 0.00 0.00 0.00 0.00 0.00 0.00 0.00 0.01 0.02 0.02 0.05 0.05 0.04 0.05 0.06 0.05 0.04 0.05 0.08 0.11 0.14 0.15 0.16 0.14 0.13 0.12 0.11 0.09 0.09 0.10 0.15 0.19 0.16 0.06 0.03 0.02 0.00 0.00 0.00 0.00 0.00
0.00 0.00 0.00 0.00 0.00 0.00 0.00 0.00 0.00 0.01 0.01 0.02 0.04 0.04 0.03 0.03 0.05 0.06 0.06 0.04 0.04 0.04 0.04 0.06 0.06 0.07 0.06 0.06 0.06 0.08 0.12 0.16 0.18 0.21 0.21 0.12 0.04 0.02 0.01 0.00 0.00 0.00 0.00
0.00 0.00 0.00 0.00 0.00 0.01 0.01 0.01 0.01 0.01 0.01 0.03 0.05 0.05 0.05 0.04 0.08 0.07 0.05 0.03 0.04 0.03 0.02 0.02 0.02 0.02 0.02 0.02 0.02 0.03 0.08 0.14 0.19 0.21 0.23 0.19 0.11 0.05 0.03 0.02 0.00 0.00 0.00
0.00 0.00 0.00 0.01 0.01 0.02 0.02 0.03 0.04 0.05 0.05 0.06 0.06 0.06 0.06 0.09 0.07 0.02 0.01 0.02 0.03 0.02 0.02 0.02 0.02 0.01 0.01 0.01 0.02 0.01 0.01 0.03 0.10 0.18 0.22 0.21 0.26 0.19 0.09 0.03 0.01 0.00 0.01
0.02 0.02 0.02 0.03 0.05 0.06 0.06 0.07 0.10 0.10 0.08 0.10 0.10 0.07 0.09 0.15 0.08 0.02 0.01 0.00 0.00 0.01 0.01 0.01 0.02 0.02 0.01 0.03 0.06 0.09 0.10 0.08 0.11 0.08 0.12 0.22 0.26 0.24 0.16 0.10 0.05 0.03 0.03
0.04 0.03 0.03 0.03 0.04 0.05 0.07 0.10 0.11 0.12 0.15 0.14 0.15 0.15 0.17 0.16 0.09 0.02 0.01 0.00 0.00 0.00 0.00 0.01 0.02 0.03 0.04 0.06 0.10 0.15 0.17 0.15 0.20 0.20 0.19 0.19 0.21 0.21 0.18 0.14 0.10 0.05 0.03
0.01 0.01 0.00 0.00 0.01 0.02 0.04 0.06 0.08 0.09 0.13 0.14 0.13 0.12 0.14 0.14 0.11 0.04 0.02 0.01 0.02 0.02 0.03 0.03 0.06 0.04 0.06 0.06 0.08 0.12 0.12 0.11 0.11 0.13 0.11 0.09 0.07 0.07 0.10 0.09 0.09 0.08 0.07
0.00 0.00 0.00 0.00 0.00 0.01 0.02 0.03 0.04 0.06 0.08 0.10 0.13 0.13 0.11 0.13 0.15 0.10 0.05 0.04 0.07 0.09 0.10 0.08 0.07 0.05 0.03 0.02 0.03 0.07 0.06 0.07 0.10 0.11 0.11 0.09 0.06 0.05 0.04 0.04 0.04 0.05 0.10
0.00 0.00 0.00 0.00 0.00 0.00 0.01 0.02 0.02 0.03 0.04 0.06 0.09 0.10 0.10 0.13 0.15 0.13 0.08 0.05 0.07 0.11 0.14 0.11 0.08 0.07 0.02 0.01 0.01 0.04 0.03 0.03 0.08 0.12 0.12 0.11 0.09 0.09 0.09 0.07 0.06 0.06 0.07
0.00 0.00 0.00 0.00 0.00 0.00 0.01 0.01 0.02 0.02 0.03 0.05 0.08 0.12 0.13 0.13 0.13 0.11 0.07 0.04 0.04 0.09 0.11 0.11 0.09 0.04 0.01 0.01 0.01 0.01 0.01 0.03 0.06 0.08 0.10 0.11 0.11 0.11 0.13 0.13 0.13 0.11 0.09
0.00 0.00 0.00 0.00 0.00 0.01 0.01 0.02 0.03 0.03 0.06 0.10 0.12 0.15 0.16 0.16 0.14 0.10 0.07 0.06 0.05 0.07 0.06 0.03 0.02 0.01 0.01 0.03 0.02 0.01 0.01 0.04 0.06 0.08 0.10 0.12 0.14 0.15 0.14 0.14 0.16 0.17 0.17
0.00 0.00 0.00 0.00 0.00 0.00 0.00 0.00 0.01 0.02 0.03 0.08 0.12 0.15 0.18 0.19 0.15 0.10 0.08 0.10 0.12 0.16 0.17 0.10 0.05 0.04 0.03 0.04 0.04 0.03 0.03 0.03 0.03 0.05 0.08 0.09 0.11 0.14 0.15 0.13 0.12 0.13 0.15
0.00 0.00 0.00 0.00 0.00 0.00 0.00 0.00 0.00 0.00 0.01 0.02 0.03 0.06 0.05 0.05 0.04 0.02 0.02 0.03 0.05 0.09 0.17 0.21 0.21 0.21 0.21 0.20 0.16 0.10 0.07 0.06 0.06 0.07 0.07 0.08 0.09 0.11 0.14 0.15 0.13 0.12 0.10
0.00 0.00 0.00 0.00 0.00 0.00 0.01 0.01 0.01 0.01 0.00 0.00 0.00 0.01 0.01 0.01 0.01 0.01 0.01 0.02 0.04 0.06 0.15 0.22 0.23 0.21 0.19 0.17 0.15 0.13 0.11 0.08 0.07 0.07 0.06 0.06 0.07 0.07 0.07 0.08 0.06 0.05 0.05
0.00 0.00 0.00 0.01 0.01 0.02 0.03 0.05 0.08 0.09 0.06 0.01 0.00 0.00 0.01 0.01 0.02 0.01 0.02 0.04 0.04 0.06 0.12 0.15 0.14 0.11 0.07 0.05 0.04 0.04 0.04 0.04 0.04 0.04 0.04 0.04 0.05 0.07 0.07 0.07 0.06 0.04 0.03
0.00 0.01 0.01 0.03 0.04 0.04 0.05 0.08 0.09 0.08 0.05 0.02 0.01 0.00 0.00 0.00 0.00 0.00 0.02 0.04 0.05 0.04 0.05 0.04 0.04 0.04 0.03 0.02 0.02 0.02 0.02 0.02 0.03 0.02 0.02 0.02 0.03 0.04 0.06 0.07 0.07 0.06 0.04
0.00 0.00 0.00 0.03 0.04 0.03 0.03 0.05 0.06 0.05 0.03 0.02 0.02 0.01 0.01 0.02 0.02 0.01 0.01 0.02 0.03 0.03 0.03 0.03 0.03 0.02 0.02 0.02 0.02 0.03 0.03 0.03 0.02 0.02 0.02 0.03 0.03 0.03 0.03 0.03 0.04 0.05 0.03
0.00 0.00 0.00 0.01 0.03 0.03 0.03 0.02 0.02 0.03 0.03 0.02 0.01 0.00 0.01 0.04 0.06 0.04 0.02 0.02 0.03 0.04 0.04 0.04 0.03 0.02 0.02 0.02 0.03 0.02 0.02 0.02 0.02 0.02 0.02 0.02 0.03 0.02 0.02 0.02 0.02 0.02 0.02
0.00 0.00 0.00 0.02 0.03 0.02 0.02 0.02 0.03 0.03 0.02 0.01 0.01 0.00 0.01 0.04 0.05 0.04 0.04 0.03 0.02 0.03 0.02 0.02 0.03 0.03 0.02 0.02 0.02 0.02 0.01 0.01 0.01 0.01 0.02 0.02 0.02 0.02 0.02 0.02 0.02 0.02 0.02
0.00 0.00 0.00 0.01 0.02 0.01 0.01 0.02 0.03 0.03 0.03 0.02 0.01 0.01 0.01 0.02 0.03 0.03 0.04 0.04 0.04 0.04 0.03 0.04 0.04 0.04 0.03 0.03 0.03 0.02 0.01 0.01 0.01 0.01 0.01 0.01 0.02 0.02 0.02 0.03 0.03 0.03 0.03
0.00 0.00 0.00 0.01 0.02 0.01 0.02 0.03 0.03 0.03 0.03 0.02 0.02 0.03 0.03 0.04 0.03 0.03 0.03 0.02 0.02 0.03 0.03 0.03 0.03 0.03 0.02 0.02 0.01 0.01 0.01 0.01 0.01 0.01 0.01 0.01 0.02 0.02 0.02 0.02 0.03 0.04 0.05
0.00 0.00 0.00 0.01 0.01 0.01 0.01 0.02 0.02 0.02 0.02 0.02 0.03 0.03 0.03 0.04 0.04 0.03 0.02 0.02 0.02 0.02 0.02 0.01 0.01 0.01 0.00 0.00 0.00 0.00 0.00 0.01 0.01 0.01 0.01 0.01 0.02 0.02 0.03 0.05 0.06 0.08 0.11
0.00 0.00 0.00 0.00 0.01 0.01 0.01 0.02 0.02 0.02 0.02 0.02 0.02 0.02 0.02 0.02 0.02 0.02 0.01 0.01 0.01 0.01 0.00 0.00 0.00 0.00 0.00 0.00 0.00 0.00 0.00 0.00 0.01 0.01 0.01 0.01 0.01 0.02 0.04 0.06 0.08 0.10 0.12
MSLP
1007.09 1007.42 1007.77 1008.09 1008.37 1008.59 1008.75 1008.88 1009.00 1009.14 1009.33 1009.59 1009.92 1010.30 1010.70 1011.10 1011.45 1011.75 1012.00 1012.19 1012.36 1012.54 1012.76 1013.02 1013.34 1013.70 1014.08 1014.45 1014.78 1015.04 1015.23 1015.35 1015.43 1015.49 1015.57 1015.69 1015.88 1016.14 1016.47 1016.84 1017.22 1017.59 1017.91
1006.75 1007.15 1007.55 1007.91 1008.20 1008.42 1008.58 1008.69 1008.79 1008.92 1009.10 1009.37 1009.71 1010.12 1010.56 1010.99 1011.39 1011.73 1012.01 1012.22 1012.39 1012.55 1012.73 1012.95 1013.22 1013.54 1013.89 1014.24 1014.57 1014.85 1015.07 1015.23 1015.33 1015.41 1015.49 1015.59 1015.75 1015.97 1016.25 1016.59 1016.96 1017.33 1017.68
1006.40 1006.87 1007.32 1007.71 1008.02 1008.24 1008.38 1008.47 1008.54 1008.65 1008.82 1009.08 1009.43 1009.86 1010.33 1010.82 1011.27 1011.66 1011.98 1012.22 1012.41 1012.56 1012.72 1012.89 1013.12 1013.39 1013.70 1014.03 1014.35 1014.65 1014.90 1015.10 1015.24 1015.34 1015.43 1015.52 1015.65 1015.83 1016.06 1016.35 1016.68 1017.03 1017.38
1006.11 1006.63 1007.12 1007.53 1007.84 1008.05 1008.16 1008.22 1008.27 1008.35 1008.49 1008.74 1009.09 1009.53 1010.03 1010.54 1011.04 1011.48 1011.85 1012.12 1012.33 1012.48 1012.61 1012.75 1012.93 1013.15 1013.42 1013.72 1014.04 1014.35 1014.63 1014.87 1015.06 1015.20 1015.31 1015.40 1015.52 1015.66 1015.84 1016.08 1016.36 1016.68 1017.01
1005.98 1006.51 1007.01 1007.41 1007.70 1007.89 1007.97 1008.00 1008.01 1008.05 1008.17 1008.38 1008.72 1009.15 1009.65 1010.19 1010.71 1011.18 1011.58 1011.88 1012.10 1012.25 1012.36 1012.47 1012.60 1012.78 1013.00 1013.28 1013.58 1013.90 1014.21 1014.48 1014.71 1014.90 1015.04 1015.16 1015.27 1015.38 1015.53 1015.72 1015.96 1016.23 1016.54
1006.05 1006.57 1007.03 1007.40 1007.66 1007.80 1007.85 1007.84 1007.81 1007.82 1007.89 1008.07 1008.37 1008.77 1009.25 1009.77 1010.29 1010.77 1011.18 1011.49 1011.72 1011.86 1011.96 1012.04 1012.13 1012.26 1012.44 1012.68 1012.97 1013.28 1013.60 1013.91 1014.18 1014.41 1014.60 1014.74 1014.86 1014.98 1015.10 1015.26 1015.46 1015.70 1015.99
1006.36 1006.82 1007.22 1007.53 1007.73 1007.83 1007.84 1007.79 1007.73 1007.69 1007.73 1007.86 1008.10 1008.45 1008.89 1009.37 1009.86 1010.32 1010.71 1011.02 1011.23 1011.37 1011.45 1011.50 1011.56 1011.65 1011.79 1011.99 1012.25 1012.55 1012.87 1013.19 1013.50 1013.77 1013.99 1014.17 1014.31 1014.44 1014.56 1014.71 1014.88 1015.10 1015.37
1006.89 1007.26 1007.56 1007.80 1007.94 1007.98 1007.95 1007.88 1007.79 1007.72 1007.71 1007.80 1007.98 1008.26 1008.62 1009.04 1009.47 1009.88 1010.24 1010.52 1010.73 1010.86 1010.92 1010.96 1010.99 1011.05 1011.15 1011.31 1011.53 1011.80 1012.11 1012.44 1012.75 1013.05 1013.30 1013.51 1013.69 1013.84 1013.97 1014.12 1014.29 1014.49 1014.74
1007.56 1007.81 1008.02 1008.16 1008.24 1008.24 1008.19 1008.09 1007.99 1007.90 1007.87 1007.90 1008.02 1008.22 1008.50 1008.84 1009.19 1009.54 1009.85 1010.11 1010.29 1010.41 1010.48 1010.51 1010.53 1010.56 1010.63 1010.76 1010.94 1011.18 1011.46 1011.76 1012.08 1012.38 1012.65 1012.89 1013.09 1013.27 1013.43 1013.58 1013.75 1013.95 1014.18
1008.25 1008.39 1008.50 1008.57 1008.59 1008.57 1008.50 1008.41 1008.31 1008.22 1008.16 1008.16 1008.22 1008.35 1008.55 1008.79 1009.07 1009.34 1009.60 1009.82 1009.99 1010.11 1010.18 1010.22 1010.24 1010.27 1010.33 1010.43 1010.58 1010.78 1011.02 1011.29 1011.58 1011.88 1012.15 1012.40 1012.63 1012.82 1013.00 1013.17 1013.34 1013.53 1013.74
1008.86 1008.90 1008.93 1008.94 1008.93 1008.90 1008.84 1008.77 1008.69 1008.62 1008.56 1008.54 1008.56 1008.62 1008.74 1008.91 1009.10 1009.31 1009.51 1009.70 1009.86 1009.98 1010.07 1010.12 1010.17 1010.21 1010.27 1010.35 1010.47 1010.64 1010.84 1011.08 1011.34 1011.60 1011.86 1012.11 1012.34 1012.55 1012.74 1012.92 1013.09 1013.27 1013.46
1009.32 1009.29 1009.26 1009.24 1009.22 1009.20 1009.18 1009.15 1009.11 1009.06 1009.02 1008.99 1008.98 1009.00 1009.06 1009.15 1009.27 1009.42 1009.57 1009.73 1009.87 1010.00 1010.11 1010.19 1010.27 1010.33 1010.40 1010.49 1010.60 1010.74 1010.90 1011.10 1011.32 1011.55 1011.79 1012.02 1012.25 1012.45 1012.64 1012.82 1012.98 1013.14 1013.31
1009.61 1009.53 1009.48 1009.46 1009.45 1009.46 1009.48 1009.50 1009.51 1009.51 1009.50 1009.48 1009.46 1009.45 1009.45 1009.48 1009.54 1009.63 1009.73 1009.86 1009.99 1010.12 1010.24 1010.35 1010.46 1010.55 1010.65 1010.74 1010.85 1010.98 1011.12 1011.28 1011.46 1011.66 1011.86 1012.07 1012.27 1012.47 1012.65 1012.81 1012.97 1013.11 1013.25
1009.73 1009.66 1009.61 1009.60 1009.63 1009.68 1009.75 1009.82 1009.88 1009.93 1009.95 1009.95 1009.93 1009.91 1009.88 1009.86 1009.87 1009.90 1009.95 1010.04 1010.14 1010.26 1010.39 1010.53 1010.65 1010.78 1010.89 1011.01 1011.12 1011.24 1011.36 1011.50 1011.65 1011.81 1011.98 1012.16 1012.33 1012.51 1012.67 1012.82 1012.96 1013.08 1013.20
1009.77 1009.71 1009.69 1009.71 1009.77 1009.87 1009.99 1010.11 1010.22 1010.31 1010.37 1010.39 1010.38 1010.35 1010.30 1010.25 1010.20 1010.18 1010.19 1010.23 1010.30 1010.39 1010.51 1010.64 1010.78 1010.92 1011.05 1011.18 1011.30 1011.42 1011.54 1011.66 1011.78 1011.91 1012.05 1012.19 1012.34 1012.49 1012.63 1012.76 1012.89 1013.00 1013.09
1009.78 1009.76 1009.77 1009.83 1009.93 1010.05 1010.20 1010.36 1010.51 1010.63 1010.72 1010.77 1010.77 1010.74 1010.68 1010.61 1010.53 1010.46 1010.42 1010.41 1010.43 1010.48 1010.57 1010.68 1010.81 1010.94 1011.09 1011.22 1011.35 1011.47 1011.58 1011.69 1011.79 1011.90 1012.00 1012.11 1012.23 1012.35 1012.47 1012.59 1012.70 1012.81 1012.89
1009.81 1009.83 1009.89 1009.97 1010.09 1010.24 1010.41 1010.58 1010.75 1010.89 1011.00 1011.07 1011.10 1011.08 1011.02 1010.94 1010.83 1010.73 1010.65 1010.58 1010.55 1010.56 1010.60 1010.68 1010.78 1010.90 1011.03 1011.16 1011.29 1011.41 1011.51 1011.61 1011.69 1011.77 1011.85 1011.93 1012.02 1012.11 1012.21 1012.31 1012.41 1012.51 1012.60
1009.87 1009.94 1010.02 1010.13 1010.26 1010.41 1010.58 1010.75 1010.93 1011.08 1011.21 1011.30 1011.35 1011.35 1011.30 1011.23 1011.12 1011.00 1010.89 1010.79 1010.71 1010.67 1010.67 1010.70 1010.77 1010.86 1010.97 1011.09 1011.21 1011.31 1011.41 1011.49 1011.55 1011.60 1011.65 1011.70 1011.75 1011.81 1011.89 1011.97 1012.07 1012.16 1012.26
1009.94 1010.05 1010.16 1010.28 1010.41 1010.55 1010.70 1010.86 1011.03 1011.18 1011.32 1011.44 1011.51 1011.54 1011.53 1011.48 1011.40 1011.28 1011.16 1011.05 1010.94 1010.87 1010.83 1010.82 1010.86 1010.92 1011.01 1011.10 1011.20 1011.29 1011.36 1011.42 1011.45 1011.47 1011.48 1011.49 1011.51 1011.53 1011.58 1011.64 1011.72 1011.81 1011.91
1009.99 1010.14 1010.27 1010.39 1010.50 1010.63 1010.76 1010.90 1011.05 1011.20 1011.35 1011.49 1011.60 1011.67 1011.71 1011.70 1011.66 1011.58 1011.48 1011.37 1011.27 1011.18 1011.13 1011.10 1011.11 1011.15 1011.21 1011.28 1011.35 1011.41 1011.45 1011.47 1011.47 1011.45 1011.42 1011.38 1011.35 1011.34 1011.35 1011.38 1011.44 1011.52 1011.60
1009.99 1010.17 1010.31 1010.43 1010.54 1010.64 1010.75 1010.87 1011.01 1011.16 1011.31 1011.47 1011.62 1011.75 1011.84 1011.90 1011.91 1011.89 1011.84 1011.77 1011.69 1011.62 1011.56 1011.53 1011.53 1011.55 1011.59 1011.64 1011.68 1011.71 1011.71 1011.69 1011.64 1011.57 1011.48 1011.39 1011.31 1011.25 1011.22 1011.22 1011.25 1011.30 1011.37
1009.93 1010.14 1010.30 1010.42 1010.52 1010.61 1010.70 1010.81 1010.93 1011.08 1011.24 1011.43 1011.61 1011.79 1011.94 1012.07 1012.15 1012.20 1012.21 1012.20 1012.17 1012.13 1012.10 1012.09 1012.09 1012.10 1012.12 1012.14 1012.15 1012.14 1012.10 1012.03 1011.92 1011.80 1011.65 1011.51 1011.37 1011.26 1011.18 1011.14 1011.13 1011.15 1011.20
1009.84 1010.07 1010.25 1010.39 1010.50 1010.58 1010.66 1010.76 1010.87 1011.02 1011.19 1011.39 1011.61 1011.83 1012.04 1012.22 1012.38 1012.50 1012.58 1012.63 1012.66 1012.67 1012.67 1012.68 1012.69 1012.70 1012.71 1012.71 1012.68 1012.63 1012.54 1012.41 1012.25 1012.06 1011.86 1011.66 1011.47 1011.30 1011.18 1011.09 1011.05 1011.04 1011.07
1009.75 1010.01 1010.23 1010.39 1010.51 1010.60 1010.68 1010.77 1010.88 1011.03 1011.21 1011.42 1011.66 1011.91 1012.15 1012.39 1012.60 1012.78 1012.92 1013.04 1013.12 1013.17 1013.22 1013.25 1013.27 1013.27 1013.26 1013.23 1013.17 1013.07 1012.92 1012.74 1012.52 1012.28 1012.02 1011.77 1011.53 1011.32 1011.16 1011.04 1010.97 1010.94 1010.94
1009.71 1010.01 1010.25 1010.44 1010.59 1010.69 1010.79 1010.88 1011.00 1011.14 1011.32 1011.53 1011.78 1012.05 1012.32 1012.59 1012.83 1013.06 1013.25 1013.40 1013.52 1013.62 1013.68 1013.73 1013.75 1013.75 1013.71 1013.65 1013.54 1013.39 1013.20 1012.96 1012.69 1012.40 1012.09 1011.80 1011.52 1011.29 1011.09 1010.95 1010.86 1010.81 1010.80
1009.73 1010.06 1010.34 1010.57 1010.74 1010.87 1010.99 1011.09 1011.21 1011.36 1011.54 1011.75 1012.00 1012.27 1012.55 1012.83 1013.10 1013.34 1013.56 1013.74 1013.88 1013.99 1014.07 1014.12 1014.13 1014.11 1014.04 1013.94 1013.79 1013.59 1013.35 1013.06 1012.75 1012.41 1012.08 1011.75 1011.46 1011.20 1011.00 1010.85 1010.75 1010.70 1010.68
Thickness
5732 5729 5724 5720 5717 5713 5710 5707 5705 5702 5700 5697 5694 5692 5690 5688 5687 5686 5685 5684 5683 5681 5680 5679 5679 5680 5681 5684 5688 5690 5692 5691 5686 5690 5697 5699 5697 5695 5692 5692 5690 5691 5691
5729 5725 5720 5717 5712 5708 5706 5704 5702 5699 5696 5694 5691 5688 5686 5684 5683 5681 5680 5679 5677 5676 5675 5674 5673 5674 5674 5676 5678 5681 5684 5687 5685 5684 5689 5692 5693 5693 5690 5689 5689 5689 5688
5725 5720 5716 5712 5708 5705 5704 5702 5700 5696 5693 5691 5688 5685 5682 5680 5678 5677 5675 5674 5673 5671 5670 5669 5668 5668 5668 5668 5671 5674 5677 5681 5682 5681 5683 5687 5688 5690 5686 5685 5687 5687 5685
5721 5715 5711 5709 5706 5704 5702 5699 5696 5694 5690 5688 5686 5683 5680 5677 5675 5673 5671 5669 5668 5667 5666 5665 5664 5664 5664 5663 5665 5668 5671 5673 5675 5676 5677 5678 5680 5684 5682 5678 5679 5681 5683
5717 5710 5707 5706 5704 5701 5697 5694 5692 5689 5688 5686 5683 5680 5678 5674 5672 5670 5667 5666 5664 5662 5662 5662 5662 5662 5662 5662 5663 5664 5666 5666 5668 5669 5670 5671 5672 5674 5675 5676 5674 5675 5676
5713 5707 5705 5702 5699 5696 5692 5689 5686 5683 5682 5680 5678 5675 5673 5672 5670 5667 5665 5664 5662 5661 5660 5661 5662 5661 5661 5661 5662 5663 5663 5663 5663 5664 5665 5666 5668 5670 5671 5672 5670 5668 5666
5708 5704 5701 5696 5692 5689 5686 5683 5680 5677 5675 5672 5671 5670 5668 5666 5665 5662 5661 5660 5660 5660 5661 5661 5662 5663 5662 5661 5661 5661 5662 5663 5663 5663 5662 5665 5667 5668 5667 5666 5667 5667 5667
5697 5693 5690 5687 5684 5681 5678 5676 5674 5672 5669 5666 5664 5664 5662 5660 5658 5657 5656 5654 5655 5658 5660 5662 5662 5663 5663 5662 5661 5659 5660 5661 5663 5663 5663 5666 5669 5669 5668 5668 5667 5665 5666
5683 5680 5678 5676 5672 5670 5667 5666 5666 5664 5663 5661 5660 5658 5655 5654 5653 5652 5650 5648 5649 5652 5656 5659 5660 5660 5661 5660 5657 5656 5656 5657 5660 5660 5661 5663 5664 5666 5667 5664 5660 5656 5655
5672 5670 5668 5665 5662 5659 5658 5658 5658 5657 5656 5656 5654 5653 5651 5649 5647 5646 5644 5643 5643 5645 5649 5652 5653 5653 5653 5653 5652 5651 5650 5651 5653 5654 5654 5656 5657 5659 5661 5661 5658 5653 5651
5666 5663 5660 5658 5655 5653 5651 5650 5650 5650 5649 5648 5646 5645 5645 5644 5641 5639 5637 5636 5636 5637 5639 5642 5644 5644 5645 5645 5646 5646 5647 5648 5649 5649 5648 5649 5650 5651 5652 5653 5653 5652 5649
5660 5657 5655 5652 5649 5647 5645 5644 5643 5642 5640 5638 5636 5635 5635 5634 5632 5629 5628 5628 5628 5628 5630 5634 5636 5636 5637 5638 5639 5640 5641 5642 5642 5641 5641 5641 5642 5642 5643 5644 5644 5645 5645
5655 5652 5650 5647 5643 5640 5638 5637 5636 5634 5632 5629 5628 5626 5624 5623 5621 5619 5619 5619 5619 5620 5623 5626 5627 5629 5630 5630 5632 5633 5634 5634 5634 5633 5633 5633 5635 5636 5635 5634 5634 5634 5635
5651 5647 5644 5640 5636 5633 5630 5628 5627 5625 5623 5621 5619 5616 5614 5612 5610 5610 5610 5610 5611 5613 5615 5617 5619 5620 5621 5624 5625 5625 5627 5628 5628 5627 5626 5627 5627 5627 5626 5625 5624 5624 5624
5648 5643 5639 5634 5630 5626 5621 5616 5616 5613 5611 5609 5607 5606 5602 5599 5596 5598 5599 5602 5604 5607 5609 5610 5611 5613 5614 5617 5619 5620 5622 5622 5621 5621 5620 5620 5619 5619 5618 5618 5616 5615 5614
5641 5637 5633 5629 5626 5623 5619 5613 5607 5606 5604 5601 5598 5596 5592 5590 5589 5590 5591 5594 5597 5601 5603 5604 5605 5608 5609 5611 5613 5614 5615 5616 5616 5615 5614 5613 5613 5612 5611 5610 5609 5608 5607
5638 5633 5629 5626 5623 5621 5618 5614 5608 5602 5599 5596 5593 5590 5588 5586 5585 5585 5586 5588 5592 5595 5597 5599 5601 5603 5604 5606 5608 5609 5609 5610 5610 5609 5608 5608 5607 5606 5605 5604 5603 5602 5601
5636 5630 5627 5624 5621 5620 5617 5614 5609 5604 5599 5594 5590 5587 5585 5584 5583 5583 5583 5586 5589 5592 5594 5595 5597 5599 5600 5601 5602 5603 5603 5604 5603 5603 5602 5602 5601 5600 5599 5598 5597 5596 5595
5635 5630 5626 5623 5621 5619 5616 5612 5608 5604 5599 5594 5590 5586 5584 5583 5583 5584 5585 5587 5588 5589 5590 5591 5592 5593 5595 5595 5596 5596 5597 5596 5596 5596 5595 5595 5594 5593 5592 5592 5591 5590 5588
5633 5628 5625 5623 5622 5619 5616 5612 5607 5603 5599 5595 5591 5588 5586 5585 5585 5585 5585 5586 5587 5587 5588 5588 5588 5589 5589 5589 5589 5590 5590 5589 5589 5588 5588 5587 5587 5586 5585 5584 5583 5582 5581
5637 5631 5626 5625 5623 5621 5617 5613 5609 5605 5600 5596 5591 5587 5586 5587 5586 5585 5584 5584 5585 5585 5585 5584 5584 5584 5584 5583 5583 5583 5583 5582 5582 5581 5580 5579 5579 5578 5577 5576 5574 5573 5572
5642 5637 5632 5629 5626 5622 5618 5616 5612 5608 5603 5598 5593 5591 5589 5588 5587 5585 5584 5584 5583 5583 5583 5582 5581 5580 5579 5578 5578 5577 5577 5576 5575 5574 5573 5573 5572 5571 5569 5568 5567 5565 5564
5645 5641 5636 5633 5629 5624 5622 5619 5615 5611 5607 5602 5598 5594 5592 5590 5588 5586 5584 5583 5582 5581 5580 5579 5577 5576 5575 5574 5573 5572 5571 5569 5568 5568 5567 5566 5565 5564 5563 5561 5560 5558 5557
5649 5644 5640 5636 5633 5629 5625 5622 5618 5615 5610 5606 5602 5599 5595 5593 5590 5588 5585 5584 5582 5580 5578 5576 5574 5572 5571 5570 5569 5568 5566 5564 5563 5563 5562 5561 5560 5559 5557 5555 5553 5550 5548
5652 5648 5643 5639 5636 5633 5629 5626 5622 5618 5614 5611 5607 5603 5600 5596 5593 5590 5587 5585 5582 5579 5577 5575 5573 5571 5569 5568 5567 5565 5564 5563 5562 5560 5559 5557 5555 5553 5551 5548 5545 5542 5540
5655 5650 5646 5642 5639 5636 5632 5628 5625 5621 5617 5614 5610 5606 5603 5599 5596 5593 5589 5586 5582 5579 5577 5574 5572 5569 5567 5566 5565 5564 5563 5562 5561 5559 5556 5553 5550 5547 5544 5540 5537 5534 5531